RH
86 83 84 86 88 90 92 93 93 94 91 96 95 96 90 91 91 83 60 48 46 34 18 26 18 19 19 27 26 23 42 42 33 26 21 18 16 17 19 18 17 19 26 27 29
87 86 85 85 87 89 91 93 94 95 95 90 97 96 92 90 98 74 56 41 31 24 26 19 20 19 26 29 35 40 43 34 24 21 23 20 19 20 20 20 20 23 28 28 31
85 84 85 86 87 88 90 92 93 94 98 98 99 96 96 87 74 39 46 38 22 19 27 18 16 18 27 26 33 35 42 30 22 21 21 23 19 16 19 26 20 22 33 34 33
86 86 85 84 86 88 89 91 93 93 93 98 99 94 88 91 68 39 32 19 25 31 20 19 20 25 31 34 27 37 28 27 27 23 23 25 23 26 24 26 22 17 30 34 38
90 89 88 86 84 86 90 90 92 92 90 97 98 94 97 60 55 41 18 23 34 28 20 23 27 29 36 31 29 33 30 27 23 25 26 26 31 31 30 24 21 18 21 33 38
99 97 95 95 93 86 86 90 91 88 84 95 93 91 86 76 37 32 30 25 24 24 18 23 28 27 30 32 32 25 28 27 25 25 25 28 30 29 28 26 26 25 27 28 32
85 89 92 100 97 95 88 81 88 90 71 76 83 89 69 58 36 26 22 20 19 18 20 27 26 30 33 39 33 28 39 36 33 30 30 36 54 50 35 33 35 33 30 30 32
86 90 94 94 95 100 98 94 69 37 56 78 87 77 68 37 40 38 23 22 18 18 24 29 30 33 36 34 36 42 44 58 38 33 46 48 64 38 35 36 38 35 32 33 31
74 84 92 93 91 93 96 96 60 26 83 87 81 77 63 44 42 39 32 22 20 24 28 30 33 41 41 52 57 50 64 54 46 41 47 50 52 37 29 29 32 29 26 30 34
77 79 85 89 92 89 90 91 50 48 82 79 81 67 52 44 34 35 34 24 24 30 34 36 44 55 58 64 87 64 60 55 47 46 43 52 52 37 32 31 34 33 31 81 82
84 88 91 91 93 90 92 83 42 57 75 59 59 55 37 27 24 26 27 24 25 35 52 45 60 72 56 51 50 49 51 50 37 36 41 46 46 40 34 32 34 35 38 98 98
86 89 91 92 92 80 91 67 54 80 82 46 56 48 40 28 30 25 22 31 37 52 46 52 67 47 38 38 43 47 52 52 41 32 34 39 42 39 32 48 55 72 88 96 75
85 88 93 91 57 74 58 63 76 79 88 53 38 35 31 30 38 35 27 33 44 52 49 52 40 33 35 41 46 49 56 53 47 33 30 34 59 63 53 53 42 61 88 84 88
88 88 89 92 63 70 62 64 93 84 99 50 36 36 30 34 52 34 26 36 46 48 40 39 33 34 37 40 42 62 34 35 38 41 82 33 88 52 60 78 45 48 64 66 78
86 87 90 93 89 78 66 66 81 85 97 36 38 27 33 47 41 46 29 34 43 42 40 49 40 42 43 38 34 42 31 33 35 52 59 56 83 61 54 68 49 45 64 68 85
86 87 87 90 80 74 78 77 84 95 94 46 42 40 52 52 33 31 31 29 36 48 40 43 33 32 33 28 28 31 38 40 43 62 95 78 80 69 71 70 43 51 45 62 76
78 60 84 83 83 78 85 88 97 98 40 38 44 38 47 52 50 38 55 52 78 93 89 55 49 35 31 41 31 33 64 96 98 96 94 71 78 78 56 59 73 67 63 53 82
67 66 70 71 78 86 87 99 96 69 88 75 66 39 48 47 77 46 58 66 55 68 84 77 77 42 34 41 50 52 68 94 96 96 91 59 80 71 51 64 71 72 77 56 73
69 68 70 80 85 88 98 98 90 77 55 70 56 64 73 94 100 99 90 94 77 59 86 82 55 33 32 30 33 51 73 48 81 74 81 63 52 38 40 51 52 84 83 84 86
93 70 70 89 87 87 98 81 68 43 40 48 81 76 81 77 90 92 79 68 76 69 70 86 86 44 36 30 31 39 40 75 83 98 89 56 53 74 44 45 49 81 85 87 90
69 78 84 87 90 99 97 86 84 42 47 58 76 85 81 92 77 90 75 68 70 75 62 80 93 65 48 56 55 53 75 61 77 94 98 90 78 72 80 80 76 79 81 89 92
67 84 60 75 88 98 86 76 53 50 52 64 62 66 87 97 74 76 80 84 71 67 80 68 72 94 67 47 41 40 55 66 94 93 91 93 85 78 84 83 80 76 84 89 93
81 84 65 85 96 94 90 68 63 60 68 85 83 70 72 91 87 62 83 92 81 85 96 68 90 91 85 77 52 53 44 62 85 92 94 92 84 52 66 79 81 76 89 94 92
86 93 85 89 98 100 95 90 94 61 69 62 65 62 63 66 64 86 92 99 94 90 70 69 81 85 96 91 86 87 80 54 83 98 86 85 66 43 42 66 85 89 92 89 88
84 82 75 96 85 87 92 91 83 77 76 69 72 74 85 90 95 90 96 99 93 83 91 92 90 76 81 72 73 79 82 77 88 81 93 82 87 74 75 86 80 84 92 86 85
93 91 82 84 78 87 87 96 98 92 91 79 91 84 89 96 92 90 91 83 83 82 94 95 94 84 84 66 72 79 70 77 75 70 72 77 81 54 55 65 86 94 92 90 86
65 73 96 80 89 89 82 85 90 80 100 98 85 95 92 95 69 70 83 83 84 86 77 81 96 95 90 69 87 96 87 82 77 77 78 93 73 54 47 41 92 96 90 94 93
Wind_Speed
21 22 22 21 21 22 22 22 22 22 20 21 18 17 17 20 21 22 19 20 10 7 5 3 4 6 6 3 0 2 2 4 6 7 5 4 1 3 4 2 1 4 6 9 26
22 23 24 24 23 23 23 23 23 22 22 21 21 17 16 16 18 25 27 13 10 8 6 10 8 9 4 6 4 4 4 7 6 6 6 6 4 3 1 6 4 5 8 17 23
24 23 23 24 25 24 24 24 23 23 23 22 21 19 14 14 12 2 6 8 9 9 7 7 9 7 8 5 5 6 4 8 5 7 7 7 1 3 2 6 6 3 15 12 14
23 26 25 24 25 25 25 25 26 23 24 22 20 19 12 8 5 6 8 7 5 6 9 9 7 7 6 8 10 7 9 11 9 4 1 3 5 6 5 8 8 4 12 9 9
23 24 25 26 26 27 28 27 26 26 25 23 21 17 8 7 13 11 9 7 6 6 12 9 9 9 12 7 9 9 10 14 6 4 4 6 8 6 9 8 8 3 7 9 10
27 27 26 27 26 28 28 29 29 27 28 23 18 14 8 10 7 7 7 8 9 11 13 9 7 5 6 7 6 2 6 9 8 7 7 8 8 7 8 9 8 7 9 8 8
30 31 31 30 28 29 28 29 30 30 29 21 14 8 11 19 7 9 8 9 9 11 10 6 5 3 4 8 7 4 7 10 14 15 8 2 7 12 19 8 9 6 6 8 9
30 30 28 30 29 29 30 30 32 33 28 15 11 8 8 8 19 18 11 10 8 7 3 6 2 3 4 6 3 4 7 4 4 16 4 8 7 6 4 7 4 7 7 6 4
30 31 31 30 32 31 32 33 35 36 23 10 6 10 9 5 10 14 16 15 12 7 5 5 3 3 5 4 6 9 5 9 7 5 7 8 6 7 6 5 6 7 7 8 8
29 33 33 35 36 34 34 34 39 33 13 11 14 4 12 9 10 18 20 17 12 9 5 5 4 4 4 8 5 7 10 9 6 8 7 9 11 12 8 9 10 9 8 7 3
30 31 31 33 32 31 31 24 10 2 16 12 12 8 5 7 10 10 18 14 13 9 9 11 5 9 14 14 13 12 7 10 7 9 6 8 10 12 9 8 5 2 3 6 5
30 30 30 33 34 30 26 7 11 6 12 17 21 21 24 9 9 12 21 12 11 13 14 5 10 13 13 3 4 5 5 9 9 8 3 7 11 12 8 2 4 5 6 5 4
29 31 30 33 34 14 21 15 12 13 7 15 22 22 20 20 15 16 17 14 13 13 15 12 5 5 5 3 4 5 8 8 6 5 5 6 9 4 5 8 6 7 5 4 5
30 32 30 31 15 22 18 16 13 9 5 8 7 12 16 12 12 18 20 13 7 12 13 8 14 7 5 5 6 6 5 2 4 3 3 0 5 4 5 5 5 7 7 7 5
31 32 28 23 24 13 19 21 11 3 5 4 5 4 4 14 3 13 19 7 9 9 7 3 8 6 6 6 8 3 4 4 2 3 5 4 2 5 8 5 8 9 8 7 5
34 33 33 25 14 21 19 14 7 2 6 1 4 5 12 16 4 5 2 5 3 8 6 3 3 1 1 7 5 7 3 3 1 1 2 8 6 3 4 5 9 9 8 8 3
39 40 31 19 8 21 13 6 2 5 2 2 3 9 13 10 8 10 7 6 4 4 5 8 9 4 2 6 3 2 4 1 2 2 5 3 4 7 6 6 6 9 5 2 4
42 28 19 11 12 5 5 0 4 0 2 8 13 8 11 11 8 13 11 7 10 5 2 6 3 7 6 3 4 7 6 3 4 2 2 3 5 4 10 9 8 6 3 4 4
34 18 13 10 11 0 1 3 3 2 5 8 11 2 3 1 2 9 10 7 1 4 2 2 4 5 4 4 3 5 2 2 2 4 1 5 4 4 8 7 7 5 2 3 6
24 19 4 12 6 2 1 6 4 7 10 7 3 8 9 5 4 5 6 3 3 7 5 3 3 4 3 1 1 3 2 3 2 1 3 5 5 3 7 6 7 3 4 6 5
10 5 4 14 6 1 2 4 9 10 8 5 2 3 6 4 2 1 6 5 6 2 2 4 2 2 4 5 6 2 1 1 1 2 3 3 3 3 5 4 4 2 3 5 5
6 5 14 19 2 2 4 3 8 7 6 4 4 4 1 7 4 3 4 5 4 2 2 3 1 2 2 4 5 3 5 6 3 3 2 2 5 2 5 4 4 3 4 4 3
5 3 6 6 5 5 6 9 10 6 2 2 5 5 3 1 4 3 6 4 5 4 3 1 1 1 1 3 1 3 4 3 5 1 4 2 4 5 5 3 3 3 3 3 5
3 4 3 2 2 5 7 5 6 5 3 3 3 4 2 3 2 4 5 2 4 3 5 3 1 4 1 2 2 1 3 5 5 2 3 5 3 4 3 4 3 1 2 4 5
2 2 3 4 6 11 9 4 8 5 5 5 2 2 3 2 2 3 4 4 3 1 2 3 2 3 6 7 5 6 5 6 6 9 2 4 2 4 4 3 2 2 2 6 6
3 3 2 7 10 8 6 4 8 5 4 4 3 7 3 3 3 3 5 3 2 2 1 2 1 3 4 7 1 5 8 9 13 13 14 13 18 4 4 6 3 3 3 5 8
4 2 1 5 5 6 7 11 12 10 2 3 7 2 5 6 6 7 7 5 4 6 4 2 1 1 3 4 3 5 6 7 4 4 8 10 4 4 4 4 2 2 4 5 6
Wind_Direction
358 356 352 351 350 347 345 346 342 338 336 335 330 321 314 318 305 304 283 261 189 205 209 188 209 208 227 252 191 307 259 253 263 293 262 102 151 69 33 312 20 79 66 99 139
352 351 348 344 344 342 341 340 340 336 335 332 330 324 320 320 307 285 273 218 205 202 194 198 201 185 200 208 184 201 222 220 249 347 354 99 18 76 175 212 174 121 96 126 140
342 341 342 338 336 337 337 335 335 334 331 329 325 324 327 327 301 316 154 176 178 190 219 242 263 186 217 209 200 205 237 260 333 43 13 344 310 312 289 278 258 218 158 155 156
342 337 336 334 331 330 330 332 329 330 326 323 320 321 321 309 294 139 162 165 181 189 233 212 224 199 228 220 206 247 254 262 284 85 19 267 296 288 259 238 324 47 133 153 168
338 334 332 331 328 326 326 327 326 324 322 318 314 314 324 241 247 219 188 196 199 209 229 220 217 219 239 246 227 220 252 287 275 284 198 257 264 249 265 269 284 237 115 166 174
336 330 328 326 326 324 321 319 319 318 317 314 309 298 260 253 233 180 179 197 205 212 227 238 244 292 312 285 263 271 312 284 293 243 232 246 251 238 231 229 231 244 178 188 190
333 330 331 324 320 320 319 316 312 311 312 306 297 263 256 244 212 178 191 206 214 224 235 216 350 296 337 267 336 249 296 279 256 237 242 136 279 238 236 176 191 215 251 176 198
336 332 334 330 323 317 314 313 309 306 307 287 274 234 248 250 234 237 200 200 205 212 252 94 148 285 292 324 282 236 247 262 285 201 112 117 278 23 146 155 171 223 208 174 158
333 333 329 329 325 323 318 313 309 303 296 252 215 218 257 177 205 202 202 192 182 175 155 163 178 212 167 235 263 214 252 219 243 167 137 175 268 117 117 164 204 200 179 168 173
335 332 329 324 321 317 316 315 313 296 261 231 236 245 246 227 194 196 196 205 166 167 172 199 212 192 206 220 212 208 209 246 240 191 192 190 243 267 203 186 205 215 217 62 64
334 334 335 336 329 317 318 324 322 264 222 203 193 222 132 114 136 198 181 191 192 183 208 191 201 203 219 219 232 280 307 303 325 144 172 225 253 262 257 256 244 14 95 89 79
336 335 333 332 328 317 312 279 316 315 293 281 259 248 262 200 186 195 175 183 195 205 217 180 233 238 250 12 216 257 289 280 288 114 159 263 260 260 255 111 82 71 52 105 106
335 335 332 332 333 334 333 335 334 340 273 272 243 242 242 233 221 196 181 200 188 219 229 214 213 125 188 138 204 238 243 264 278 2 260 248 288 276 62 94 95 85 122 124 120
335 334 330 329 331 337 314 350 341 349 286 271 230 240 227 198 229 236 179 192 235 230 229 222 239 169 170 213 190 228 26 22 4 343 244 183 279 271 158 132 189 126 124 138 115
333 331 328 322 295 294 306 317 315 25 264 10 101 339 222 180 91 192 177 191 231 221 193 210 141 169 211 237 174 124 56 54 357 303 332 245 102 261 145 184 164 149 138 135 131
331 328 323 320 301 290 313 301 317 220 263 113 113 179 157 204 117 79 113 29 315 236 233 210 38 218 167 75 50 115 82 178 289 341 298 214 152 263 165 193 127 117 122 102 143
334 330 325 314 302 308 318 1 240 240 300 300 209 174 185 193 183 164 180 190 168 157 207 232 192 91 103 123 103 183 126 120 206 194 228 323 135 262 160 90 128 126 84 17 168
332 336 333 337 326 327 36 140 254 13 296 344 319 175 198 184 181 184 160 180 243 300 144 187 186 140 172 233 185 185 165 175 252 190 112 254 227 245 100 96 96 101 167 38 333
334 334 326 335 322 99 64 248 281 271 2 344 330 149 242 213 259 191 181 170 228 163 186 195 106 59 47 45 16 146 186 358 10 211 78 216 163 87 118 123 145 130 72 325 313
327 326 308 344 355 188 256 277 293 351 342 341 352 7 335 224 226 180 163 71 106 24 333 23 118 139 101 133 62 15 124 82 326 244 254 257 197 176 168 151 118 29 352 314 310
319 324 342 342 302 124 265 295 312 347 0 343 55 294 286 323 307 248 74 79 56 348 321 82 341 67 132 199 168 144 287 228 9 199 202 313 276 274 150 138 112 321 281 284 315
296 317 348 338 5 269 272 241 296 317 16 349 302 234 191 319 327 85 89 67 30 56 142 64 178 211 98 32 8 325 189 168 162 228 223 162 277 67 124 148 150 232 264 293 294
306 288 313 345 6 351 302 305 304 306 355 34 6 346 4 169 321 81 81 57 38 40 41 71 201 216 261 0 3 261 223 133 104 105 221 163 263 174 179 207 173 197 275 312 307
314 321 308 40 190 303 329 329 327 354 352 338 310 291 265 311 41 120 107 94 77 42 43 41 279 251 336 66 122 244 308 188 144 202 239 219 218 198 192 195 163 149 335 326 335
284 330 345 317 324 325 319 294 313 344 13 7 318 285 353 37 14 91 77 112 102 39 58 67 246 251 280 282 270 226 211 233 204 229 175 289 279 294 295 157 154 224 339 343 343
309 342 352 290 282 310 300 7 348 351 346 356 3 359 60 39 18 84 116 151 143 99 63 42 272 0 283 255 299 265 248 223 229 237 256 272 279 320 112 119 115 86 359 345 344
352 320 309 289 299 311 353 333 318 320 55 324 323 326 81 48 46 64 63 54 115 145 152 190 320 302 273 79 13 306 238 217 202 179 219 249 253 27 54 93 81 32 3 345 334